ATLAS 2AS CENTAUR R/B - Orbit

View from above orbital plane
View from above orbital plane
View from above satellite
View from above satellite

Ground track
Ground track

The orbit data is extracted from the following two-line orbital elements,

1 28096U 03054B   13164.32291306 0.00000000  00000-0  00000-0 0    01
2 28096  63.6640 159.6669 0229000 309.8442  50.1557 13.40701989    02
Epoch (UTC): 13 June 2013 07:44:59
Eccentricity: 0.0229000
inclination: 63.6640°
perigee height: 935 km
apogee height: 1278 km
right ascension of ascending node: 159.6669°
argument of perigee: 309.8442°
revolutions per day: 13.40701989
mean anomaly at epoch: 50.1557°
orbit number at epoch: 0

The dashed part of the orbit path shows where the satellite is in the earth's shadow,  

Developed and maintained by Chris Peat, Heavens-Above GmbH. Please read the updated FAQ before sending e-mail. Imprint. DLR